Regional Weather Roundup
Issued by NWS

Home | Current Version | Previous Version | Graphics & Text | Print | Product List | Glossary On
Versions: 1 2 3 4 5 6 7 8 9 10 11 12 13 14 15 16 17 18 19 20 21 22 23 24 25 26 27 28 29 30 31 32 33 34 35 36 37 38 39 40 41 42 43 44 45 46 47 48 49 50
000
ASUS43 KDTX 281501
RWRMI
MICHIGAN HOURLY REGIONAL WEATHER ROUNDUP
NATIONAL WEATHER SERVICE DETROIT/PONTIAC MI
1100 AM EDT THU JUL 28 2016

NOTE: "FAIR" INDICATES FEW OR NO CLOUDS BELOW 12,000 FEET WITH NO
SIGNIFICANT WEATHER AND/OR OBSTRUCTION TO VISIBILITY.

MIZ047>049-052>055-059>063-066>070-074>076-081>083-281600-
SOUTHEAST LOWER MICHIGAN

CITY           SKY/WX    TMP DP  RH WIND       PRES   REMARKS
ADRIAN         PTSUNNY   78  66  66 NE7       29.93F
ALMA           CLOUDY    73  70  89 E8        29.97S
ANN ARBOR      CLOUDY    78  66  66 NE8       29.92F
BAD AXE        CLOUDY    75  61  62 N10       29.97S
CARO           MOSUNNY   75  63  65 NE7       29.96S
DETROIT CITY   CLOUDY    79  68  69 N7        29.93F
DETROIT        CLOUDY    80  65  59 NE9       29.92F
FLINT          MOSUNNY   81  61  50 NE10      29.94F
GROSSE ILE     CLOUDY    78  68  72 NE9       29.91S
HILLSDALE      CLOUDY    76  66  71 N5        29.94F
HOWELL         PTSUNNY   77  64  63 NE7       29.95S

CITY           SKY/WX    TMP DP  RH WIND       PRES   REMARKS
JACKSON        MOSUNNY   75  65  70 NE8       29.95S
LAMBERTVILLE   CLOUDY    79  69  73 N5        29.92F
LANSING        MOSUNNY   75  65  70 N10       29.96F
LAPEER         FAIR      76  64  65 E5        29.95F
MASON          PTSUNNY   74  63  67 NE7       29.95S
MONROE         CLOUDY    76  71  83 NE7       29.91S
PONTIAC        PTSUNNY   78  61  55 NE8       29.94F
PORT HOPE        N/A     75  65  70 VRB7      29.96F
PORT HURON     CLOUDY    75  66  73 NE9       29.93F
TRI CITIES     MOSUNNY   76  62  62 NE13      29.97F
MIDLAND        FAIR      73  60  63 NE6       29.97S
TROY           CLOUDY    79  65  62 NE5       29.95S
SAGINAW HB     MOSUNNY   77  61  57 NE10      29.95F
$$
MIZ043>046-050>051-056>058-064>065-071>073-077>080-281600-
SOUTHWEST LOWER MICHIGAN

CITY           SKY/WX    TMP DP  RH WIND       PRES   REMARKS
BATTLE CREEK   MOSUNNY   77  65  66 NE7       29.94F
BENTON HARBOR  MOSUNNY   80  66  62 SE3       29.91F
BIG RAPIDS     CLOUDY    73  62  69 E12G18    29.97F
COLDWATER      CLOUDY    76  68  74 NE7       29.93F
FREMONT        CLOUDY    72  71  99 E14       29.95S
HOLLAND        CLOUDY    78  66  66 E12       29.93F
GRAND RAPIDS   CLOUDY    76  68  76 NE10      29.95S
IONIA          PTSUNNY   73  63  70 E8        29.95S
KALAMAZOO      MOSUNNY   80  66  62 VRB3      29.93F
LUDINGTON      MOSUNNY   75  60  60 E14G20    29.95S
MARSHALL       MOSUNNY   77  66  67 NE3       29.94S
MOUNT PLEASANT CLOUDY    73  61  65 NE10      29.97F
MUSKEGON       CLOUDY    81  69  67 E10       29.93F
SOUTH HAVEN    PTSUNNY   79  68  68 SE6       29.92S
$$
MIZ016>042-281600-
NORTHERN LOWER MICHIGAN

CITY           SKY/WX    TMP DP  RH WIND       PRES   REMARKS
ALPENA         PTSUNNY   67  61  81 N7        30.00S
BEAVER ISLAND  SUNNY     71  59  66 E5        30.00F
BELLAIRE       CLOUDY    65  56  70 CALM      30.00S
CADILLAC       CLOUDY    65  56  70 NE6       30.00S
CHARLEVOIX     CLOUDY    68  58  71 E5        30.03S
FRANKFORT      CLOUDY    65  59  81 E5        29.98F
GAYLORD        CLOUDY    65  53  65 E6        30.02S
GRAYLING       CLOUDY    66  55  67 E3        30.01S
HARBOR SPRINGS CLOUDY    68  60  76 CALM      30.00S
HOUGHTON LAKE  CLOUDY    66  56  70 NE7       30.01S
MANISTEE       CLOUDY    69  56  62 E12       29.96F
OSCODA         LGT RAIN  67  58  72 N7        29.98S
PELLSTON       SUNNY     71  57  61 N5        30.01S
ROGERS CITY    CLOUDY    66  59  76 N5        30.01S
TRAVERSE CITY  LGT RAIN  68  54  60 N5        29.99S
$$
MIZ007>008-015-281600-
EASTERN UPPER MICHIGAN

CITY           SKY/WX    TMP DP  RH WIND       PRES   REMARKS
KINROSS        SUNNY     71  56  58 NE10      30.02R
MACKINAC ISLAN SUNNY     67  64  89 NE3       30.01S
S. S. MARIE    SUNNY     73  56  54 VRB6      30.00F
$$
MIZ004>006-011>014-085-281600-
CENTRAL UPPER MICHIGAN

CITY           SKY/WX    TMP DP  RH WIND       PRES   REMARKS
ESCANABA       SUNNY     68  61  77 E7        30.00S
MENOMINEE      CLOUDY   N/A N/A N/A N5        30.02F
SAWYER-GWINN   SUNNY     66  57  72 NE13      30.05R
$$
MIZ001>003-009>011-084-281600-
WESTERN UPPER MICHIGAN

CITY           SKY/WX    TMP DP  RH WIND       PRES   REMARKS
IRON MOUNTAIN  MOSUNNY   70  56  61 NE6       30.02S
HOUGHTON       SUNNY     69  54  58 SE10      30.08R
COPPER HARBOR    N/A     63  56  78 E8        30.08S
IRONWOOD       SUNNY     68  57  68 NE6       30.04S
$$

ABBREVIATIONS USED IN REMARKS
   TC - TEMPERATURE IN CELSIUS
  WCI - WIND CHILL INDEX
   HX - HEAT INDEX
  VSB - VISIBILITY




USA.gov is the U.S. government's official web portal to all federal, state and local government web resources and services.